Weather Roundup
Issued by NWS Chicago, IL

Home | Current Version | Previous Version | Graphics & Text | Print | Product List | Glossary On
Versions: 1 2 3 4 5 6 7 8 9 10 11 12 13 14 15 16 17 18 19 20 21 22 23 24 25 26 27 28 29 30 31 32 33 34 35 36 37 38 39 40 41 42 43 44 45 46 47 48 49 50
000
NZUS59 KLOT 011058
HRRLOT

CHICAGO AREA WEATHER ROUNDUP
NATIONAL WEATHER SERVICE CHICAGO/ROMEOVILLE IL
500 AM CST SUN FEB 01 2015

NOTE: "FAIR" INDICATES FEW OR NO CLOUDS BELOW 12,000 FEET WITH NO
SIGNIFICANT WEATHER AND/OR OBSTRUCTIONS TO VISIBILITY.

* THESE STATIONS ARE NOT UNDER NWS QUALITY CONTROL. THEY ALSO MAY NOT
  REPORT WEATHER SUCH AS PRECIPITATION OR FOG.

ILZ005-006-012>014-019>023-011200-
NORTHEAST ILLINOIS

CITY           SKY/WX    TMP DP  RH WIND       PRES   REMARKS
OHARE          SNOW      30  29  96 E10       30.02F VSB 1/2 WCI  21
MIDWAY         LGT SNOW  33  30  88 E10       30.02F VSB 3/4 WCI  25
AURORA         LGT SNOW  32  29  88 E15       29.99F VSB 3/4 WCI  22
WAUKEGAN       LGT SNOW  28  28 100 NE17G25   30.05F VSB 3/4 WCI  16
DUPAGE AIRPORT LGT SNOW  31  29  92 E10       30.00F VSB 3/4 WCI  22
WHEELING       LGT SNOW  30  28  92 E10       30.05F VSB 3/4 WCI  21
NORTHERLY IS     N/A     31  30  96 E13         N/A  WCI  21
$$

WIZ051-052-058>065-066-070>072-011200-
SOUTHEAST WISCONSIN

CITY           SKY/WX    TMP DP  RH WIND       PRES   REMARKS
MILWAUKEE      LGT SNOW  25  21  85 NE23G30   30.11F VSB 1   WCI  10
KENOSHA*       LGT SNOW  28  26  92 NE20G26   30.07F VSB 3/4 WCI  15
RACINE*        LGT SNOW  27  23  85 NE20G29   30.10F FOG     WCI  13
$$

INZ001>003-010>013-019-020-011200-
NORTHWEST INDIANA

CITY           SKY/WX    TMP DP  RH WIND       PRES   REMARKS
GARY*          LGT SNOW  34  32  93 CALM      30.04F
MICHIGAN CITY* NOT AVBL
RENSSELAER*    NOT AVBL
$$

LMZ740>746-011200-
SOUTHERN LAKE MICHIGAN

STATION/POSITION TIME  SKY/WX   TEMP WIND        PRES    VSBY
                                AIR  DIR/SP/G
                 (UTC)          (F)  (DEG/KT/KT) (MB)    (MI)
HARRISON CRIB    1000            30   70/ 17/ 19   N/A
BURNHAM HARBOR   1000            31   70/ 13/ 13   N/A
CALUMET HARBOR   1000            31   80/ 10/ 13   N/A
BURNS HARBOR     NOT AVBL
MICHIGAN CITY    1000            30   50/  7/  9   N/A
$$

ABBREVIATIONS USED IN REMARKS
   TC - TEMPERATURE IN CELSIUS
  WCI - WIND CHILL INDEX
   HX - HEAT INDEX
  VSB - VISIBILITY
$$


USA.gov is the U.S. government's official web portal to all federal, state and local government web resources and services.